Location: Hermaringen
(48.5952°N, 10.2585°E)
Time: 13:43:45
(UTC+00:00)

SR - Pass Details

Date: 24 February 2026
Orbit: 572 x 849 km, 66.7° (Epoch: 12 March)

Event Time Altitude Azimuth Distance (km) Brightness Sun altitude
Rises 12:42:36 0° 305° (NW) 3,153 ? 30.0°
Reaches altitude 10° 12:46:59 10° 270° (W) 2,301 ? 29.8°
Maximum altitude 12:48:13 11° 256° (WSW) 2,264 ? 29.7°
Drops below altitude 10° 12:49:27 10° 243° (WSW) 2,337 ? 29.6°
Sets 12:54:05 0° 208° (SSW) 3,324 ? 29.3°
